contact:dominique.lefevre@mio.osupytheas.fr, maurice.libes@osupytheas.fr, didier.mallarino@osupytheas.fr
Project:EMSO http://www.emso-fr.org/EMSO-France
Depth: 2436.0 m
Title:EMSO Ligure Ouest : Data MII capteur AQUADOPP
Date,Latitude,Longitude,X_East,Y_North,Z_Up,Amplitude_X,Amplitude_Y,Amplitude_Z,Batterie,SoundSpeed,Heading,Pitch,Roll,Pressure,TIS,Speed,Direction
, degrees North, degrees East, m.s-1, m.s-1,m.s-1, 1, 1, 1, Volt, m.s-1, degree, degree, degree, dbar, degree_C, m.s-1, degree
2020-05-02T00:04:03,42.805,6.029,-0.023,0.024,0.01,105.0,114.0,102.0,13.4,1505.3,328.6,-0.7,1.8,2470.423,13.31,0.033,316.2
2020-05-02T00:07:03,42.805,6.029,-0.02,0.015,-0.039,105.0,113.0,102.0,13.4,1505.3,323.5,-0.7,1.8,2470.423,13.32,0.025,306.9
2020-05-02T00:10:03,42.805,6.029,-0.046,0.036,-0.03,103.0,115.0,100.0,13.4,1505.3,323.1,-0.7,1.8,2470.422,13.32,0.058,308.0
2020-05-02T00:13:03,42.805,6.029,-0.012,0.031,0.004,104.0,112.0,101.0,13.4,1505.3,328.6,-0.7,1.8,2470.382,13.33,0.033,338.8
2020-05-02T00:16:03,42.805,6.029,-0.043,0.037,-0.037,103.0,114.0,101.0,13.4,1505.3,323.5,-0.7,1.8,2470.423,13.33,0.056,310.7
2020-05-02T00:19:03,42.805,6.029,-0.024,0.019,-0.022,103.0,113.0,101.0,13.4,1505.3,327.2,-0.7,1.8,2470.427,13.33,0.03,308.4
2020-05-02T00:22:03,42.805,6.029,-0.007,0.021,0.014,104.0,112.0,101.0,13.4,1505.3,326.3,-0.7,1.8,2470.374,13.33,0.022,341.6
2020-05-02T00:25:03,42.805,6.029,-0.022,0.042,-0.007,99.0,113.0,101.0,13.4,1505.3,325.7,-0.7,1.9,2470.389,13.33,0.047,332.4
2020-05-02T00:28:03,42.805,6.029,-0.025,0.023,0.011,103.0,112.0,101.0,13.3,1505.3,327.5,-0.7,1.8,2470.404,13.33,0.033,312.6
2020-05-02T00:31:03,42.805,6.029,-0.038,0.036,-0.037,101.0,114.0,100.0,13.4,1505.3,326.8,-0.7,1.8,2470.395,13.33,0.052,313.5
2020-05-02T00:34:03,42.805,6.029,-0.027,0.022,-0.034,104.0,113.0,102.0,13.4,1505.3,328.1,-0.7,1.8,2470.36,13.33,0.034,309.2
2020-05-02T00:37:03,42.805,6.029,-0.039,0.04,-0.017,103.0,114.0,100.0,13.4,1505.3,325.6,-0.7,1.8,2470.365,13.33,0.055,315.7
2020-05-02T00:40:03,42.805,6.029,-0.012,0.03,-0.019,102.0,116.0,99.0,13.4,1505.3,326.0,-0.7,1.8,2470.376,13.33,0.032,338.2
2020-05-02T00:43:03,42.805,6.029,-0.043,0.044,-0.04,102.0,114.0,100.0,13.3,1505.3,325.1,-0.7,1.8,2470.382,13.33,0.061,315.7
2020-05-02T00:46:03,42.805,6.029,-0.04,0.03,-0.055,103.0,115.0,101.0,13.4,1505.3,326.5,-0.7,1.8,2470.382,13.33,0.05,306.9
2020-05-02T00:49:03,42.805,6.029,-0.073,0.015,-0.079,101.0,115.0,100.0,13.4,1505.3,326.6,-0.7,1.8,2470.392,13.33,0.074,281.6
2020-05-02T00:52:03,42.805,6.029,-0.037,0.041,-0.011,102.0,113.0,100.0,13.4,1505.3,324.2,-0.7,1.8,2470.413,13.33,0.055,317.9
2020-05-02T00:55:03,42.805,6.029,-0.018,0.044,0.002,101.0,114.0,101.0,13.3,1505.3,323.2,-0.7,1.8,2470.397,13.33,0.047,337.8
2020-05-02T00:58:03,42.805,6.029,-0.028,0.047,-0.011,102.0,113.0,100.0,13.3,1505.3,327.7,-0.7,1.8,2470.362,13.33,0.054,329.2
2020-05-02T01:04:03,42.805,6.029,-0.034,0.019,-0.047,101.0,115.0,102.0,13.4,1505.3,324.7,-0.7,1.8,2470.475,13.31,0.038,299.2
2020-05-02T01:07:03,42.805,6.029,-0.04,0.03,-0.05,101.0,113.0,101.0,13.4,1505.3,326.9,-0.7,1.8,2470.428,13.32,0.05,306.9
2020-05-02T01:10:03,42.805,6.029,-0.036,0.019,-0.027,103.0,112.0,100.0,13.4,1505.3,324.6,-0.7,1.8,2470.428,13.32,0.04,297.8
2020-05-02T01:13:03,42.805,6.029,-0.029,0.035,-0.012,102.0,114.0,101.0,13.4,1505.3,327.6,-0.7,1.8,2470.423,13.32,0.045,320.4
2020-05-02T01:16:03,42.805,6.029,-0.025,0.034,-0.036,103.0,112.0,100.0,13.3,1505.3,324.1,-0.7,1.8,2470.397,13.33,0.042,323.7
2020-05-02T01:19:03,42.805,6.029,-0.035,0.028,-0.018,103.0,114.0,100.0,13.3,1505.3,323.4,-0.7,1.8,2470.414,13.33,0.044,308.7
2020-05-02T01:22:03,42.805,6.029,-0.037,0.027,-0.04,102.0,114.0,100.0,13.4,1505.3,328.2,-0.7,1.8,2470.441,13.33,0.045,306.1
2020-05-02T01:25:03,42.805,6.029,-0.054,0.051,-0.032,103.0,117.0,100.0,13.4,1505.3,326.0,-0.7,1.8,2470.422,13.33,0.074,313.4
2020-05-02T01:28:03,42.805,6.029,-0.054,0.041,-0.034,102.0,113.0,100.0,13.3,1505.3,327.2,-0.7,1.8,2470.422,13.33,0.067,307.2
2020-05-02T01:31:03,42.805,6.029,-0.043,0.041,-0.018,103.0,112.0,101.0,13.4,1505.3,326.6,-0.7,1.8,2470.399,13.33,0.059,313.6
2020-05-02T01:34:03,42.805,6.029,-0.023,0.026,-0.009,102.0,113.0,100.0,13.3,1505.3,327.9,-0.7,1.8,2470.409,13.33,0.034,318.5
2020-05-02T01:37:03,42.805,6.029,-0.024,0.034,-0.005,103.0,115.0,102.0,13.3,1505.3,323.0,-0.7,1.9,2470.427,13.33,0.041,324.8
2020-05-02T01:40:03,42.805,6.029,-0.035,0.027,-0.036,101.0,114.0,100.0,13.4,1505.3,326.9,-0.7,1.8,2470.406,13.33,0.044,307.7
2020-05-02T01:43:03,42.805,6.029,-0.031,0.024,-0.027,104.0,112.0,100.0,13.4,1505.3,327.1,-0.7,1.8,2470.438,13.33,0.039,307.7
2020-05-02T01:46:03,42.805,6.029,-0.029,0.006,-0.054,103.0,110.0,100.0,13.4,1505.3,323.7,-0.7,1.8,2470.399,13.33,0.029,281.7
2020-05-02T01:49:03,42.805,6.029,-0.034,0.022,-0.038,102.0,113.0,101.0,13.4,1505.3,327.1,-0.7,1.9,2470.412,13.33,0.04,302.9
2020-05-02T01:52:03,42.805,6.029,-0.048,0.04,-0.025,103.0,112.0,100.0,13.3,1505.3,325.0,-0.7,1.8,2470.349,13.33,0.062,309.8
2020-05-02T01:55:03,42.805,6.029,-0.011,0.043,-0.026,102.0,114.0,99.0,13.4,1505.3,327.3,-0.7,1.8,2470.402,13.33,0.044,345.7
2020-05-02T01:58:03,42.805,6.029,-0.055,0.038,-0.005,101.0,113.0,101.0,13.4,1505.3,323.2,-0.7,1.8,2470.369,13.33,0.066,304.6
2020-05-02T02:04:03,42.805,6.029,-0.062,0.054,-0.036,104.0,113.0,100.0,13.3,1505.3,325.1,-0.7,1.8,2470.436,13.31,0.082,311.1
2020-05-02T02:07:03,42.805,6.029,-0.041,0.038,-0.045,103.0,113.0,100.0,13.4,1505.3,326.0,-0.7,1.8,2470.467,13.32,0.055,312.8
2020-05-02T02:10:03,42.805,6.029,-0.024,0.029,-0.024,103.0,113.0,100.0,13.4,1505.3,325.3,-0.7,1.8,2470.442,13.32,0.037,320.4
2020-05-02T02:13:03,42.805,6.029,-0.038,0.03,-0.032,103.0,113.0,101.0,13.4,1505.3,324.8,-0.7,1.8,2470.46,13.32,0.048,308.3
2020-05-02T02:16:03,42.805,6.029,-0.055,0.011,-0.066,102.0,112.0,100.0,13.4,1505.3,327.5,-0.8,1.8,2470.437,13.33,0.056,281.3
2020-05-02T02:19:03,42.805,6.029,-0.038,0.037,-0.035,102.0,115.0,100.0,13.3,1505.3,328.1,-0.7,1.8,2470.414,13.33,0.053,314.2
2020-05-02T02:22:03,42.805,6.029,-0.02,0.017,-0.044,100.0,115.0,100.0,13.4,1505.3,327.0,-0.7,1.8,2470.433,13.33,0.026,310.4
2020-05-02T02:25:03,42.805,6.029,-0.015,0.025,-0.028,101.0,115.0,100.0,13.4,1505.3,327.9,-0.7,1.8,2470.423,13.33,0.029,329.0
2020-05-02T02:28:03,42.805,6.029,-0.029,0.038,-0.022,100.0,113.0,100.0,13.4,1505.3,324.3,-0.7,1.8,2470.402,13.33,0.047,322.7
2020-05-02T02:31:03,42.805,6.029,-0.1,0.023,-0.054,99.0,113.0,101.0,13.4,1505.3,325.4,-0.6,1.9,2470.407,13.33,0.102,283.0
2020-05-02T02:34:03,42.805,6.029,-0.041,0.029,-0.01,102.0,113.0,100.0,13.4,1505.3,323.2,-0.7,1.8,2470.424,13.33,0.05,305.3
2020-05-02T02:37:03,42.805,6.029,-0.034,0.036,-0.066,101.0,113.0,100.0,13.3,1505.3,326.4,-0.7,1.8,2470.436,13.33,0.049,316.6
2020-05-02T02:40:03,42.805,6.029,-0.003,0.015,-0.007,102.0,113.0,98.0,13.4,1505.3,325.4,-0.7,1.8,2470.464,13.33,0.015,348.7
2020-05-02T02:43:03,42.805,6.029,-0.035,0.021,-0.076,103.0,112.0,102.0,13.4,1505.3,326.5,-0.7,1.8,2470.371,13.33,0.04,301.0
2020-05-02T02:46:03,42.805,6.029,-0.032,0.006,-0.03,100.0,114.0,102.0,13.4,1505.3,326.9,-0.7,1.9,2470.422,13.33,0.032,280.6
2020-05-02T02:49:03,42.805,6.029,-0.015,0.03,-0.056,103.0,112.0,100.0,13.4,1505.3,327.0,-0.7,1.8,2470.423,13.33,0.033,333.4
2020-05-02T02:52:03,42.805,6.029,-0.03,0.027,-0.016,105.0,113.0,99.0,13.4,1505.3,326.6,-0.7,1.9,2470.429,13.33,0.04,312.0
2020-05-02T02:55:03,42.805,6.029,-0.026,0.025,-0.021,102.0,113.0,100.0,13.4,1505.3,323.5,-0.7,1.8,2470.381,13.33,0.036,313.9
2020-05-02T02:58:03,42.805,6.029,-0.012,0.014,-0.066,103.0,113.0,101.0,13.3,1505.3,327.9,-0.7,1.8,2470.439,13.33,0.018,319.4
2020-05-02T03:04:03,42.805,6.029,-0.03,0.041,-0.044,102.0,114.0,101.0,13.4,1505.3,328.4,-0.7,1.8,2470.464,13.31,0.05,323.8
2020-05-02T03:07:03,42.805,6.029,-0.018,0.045,-0.035,102.0,114.0,100.0,13.4,1505.3,323.5,-0.7,1.8,2470.496,13.32,0.048,338.2
2020-05-02T03:10:03,42.805,6.029,-0.035,0.05,0.016,102.0,114.0,100.0,13.4,1505.3,325.1,-0.7,1.8,2470.426,13.32,0.061,325.0
2020-05-02T03:13:03,42.805,6.029,-0.012,0.043,-0.018,100.0,113.0,100.0,13.4,1505.3,327.2,-0.7,1.9,2470.435,13.32,0.044,344.4
2020-05-02T03:16:03,42.805,6.029,-0.04,0.047,-0.023,102.0,115.0,100.0,13.3,1505.3,326.2,-0.7,1.8,2470.405,13.33,0.061,319.6
2020-05-02T03:19:03,42.805,6.029,-0.063,0.016,-0.081,101.0,111.0,101.0,13.4,1505.3,325.3,-0.7,1.8,2470.388,13.33,0.064,284.2
2020-05-02T03:22:03,42.805,6.029,-0.007,0.037,0.004,101.0,114.0,100.0,13.4,1505.3,324.9,-0.7,1.8,2470.407,13.33,0.037,349.3
2020-05-02T03:25:03,42.805,6.029,-0.029,0.031,-0.033,102.0,111.0,99.0,13.3,1505.3,324.8,-0.7,1.8,2470.409,13.33,0.042,316.9
2020-05-02T03:28:03,42.805,6.029,-0.039,0.024,-0.038,100.0,114.0,99.0,13.4,1505.3,327.0,-0.7,1.8,2470.409,13.33,0.045,301.6
2020-05-02T03:31:03,42.805,6.029,-0.026,0.034,-0.026,103.0,113.0,101.0,13.4,1505.3,326.4,-0.7,1.8,2470.442,13.33,0.042,322.6
2020-05-02T03:34:03,42.805,6.029,-0.037,0.028,-0.048,103.0,113.0,99.0,13.4,1505.3,326.2,-0.7,1.9,2470.422,13.33,0.046,307.1
2020-05-02T03:37:03,42.805,6.029,-0.015,0.016,-0.019,101.0,111.0,101.0,13.3,1505.3,324.0,-0.7,1.9,2470.42,13.33,0.021,316.9
2020-05-02T03:40:03,42.805,6.029,-0.057,0.046,-0.019,103.0,114.0,100.0,13.4,1505.3,326.0,-0.7,1.8,2470.433,13.33,0.073,308.9
2020-05-02T03:43:03,42.805,6.029,-0.009,0.022,-0.044,101.0,112.0,101.0,13.4,1505.3,328.5,-0.7,1.8,2470.402,13.33,0.023,337.8
2020-05-02T03:46:03,42.805,6.029,-0.031,0.023,-0.023,101.0,112.0,101.0,13.3,1505.3,324.7,-0.7,1.8,2470.423,13.33,0.038,306.6
2020-05-02T03:49:03,42.805,6.029,-0.036,0.007,-0.063,102.0,114.0,101.0,13.4,1505.3,323.6,-0.7,1.8,2470.457,13.33,0.036,281.0
2020-05-02T03:52:03,42.805,6.029,-0.039,0.028,-0.037,103.0,115.0,101.0,13.4,1505.3,326.2,-0.7,1.8,2470.47,13.33,0.048,305.7
2020-05-02T03:55:03,42.805,6.029,-0.016,0.033,-0.024,102.0,113.0,101.0,13.4,1505.3,326.8,-0.7,1.9,2470.404,13.33,0.036,334.1
2020-05-02T03:58:03,42.805,6.029,-0.04,0.024,-0.022,102.0,114.0,101.0,13.4,1505.3,324.3,-0.7,1.8,2470.37,13.33,0.046,301.0
2020-05-02T04:04:03,42.805,6.029,-0.066,0.045,-0.025,101.0,115.0,100.0,13.3,1505.3,323.0,-0.7,1.9,2470.469,13.31,0.079,304.3
2020-05-02T04:07:03,42.805,6.029,-0.04,0.024,-0.038,102.0,112.0,100.0,13.4,1505.3,324.6,-0.7,1.9,2470.448,13.32,0.046,301.0
2020-05-02T04:10:03,42.805,6.029,-0.038,0.033,-0.03,102.0,112.0,100.0,13.4,1505.3,327.0,-0.7,1.8,2470.426,13.32,0.05,311.0
2020-05-02T04:13:03,42.805,6.029,-0.027,0.01,-0.028,100.0,114.0,101.0,13.3,1505.3,323.6,-0.7,1.8,2470.43,13.33,0.028,290.3
2020-05-02T04:16:03,42.805,6.029,-0.04,0.039,-0.021,102.0,114.0,100.0,13.4,1505.3,323.8,-0.7,1.8,2470.424,13.33,0.055,314.3
2020-05-02T04:19:03,42.805,6.029,-0.039,0.034,-0.028,102.0,113.0,99.0,13.4,1505.3,325.9,-0.7,1.8,2470.45,13.33,0.051,311.1
2020-05-02T04:22:03,42.805,6.029,-0.022,0.024,-0.021,102.0,111.0,100.0,13.4,1505.3,327.0,-0.7,1.8,2470.425,13.33,0.032,317.5
2020-05-02T04:25:03,42.805,6.029,-0.051,0.042,-0.026,103.0,113.0,100.0,13.4,1505.3,327.5,-0.7,1.8,2470.421,13.33,0.066,309.5
2020-05-02T04:28:03,42.805,6.029,-0.047,0.028,-0.076,101.0,112.0,101.0,13.4,1505.3,325.6,-0.7,1.8,2470.417,13.33,0.054,300.8
2020-05-02T04:31:03,42.805,6.029,-0.058,0.022,-0.055,102.0,113.0,101.0,13.4,1505.3,325.4,-0.7,1.8,2470.41,13.33,0.062,290.8
2020-05-02T04:34:03,42.805,6.029,-0.012,0.032,-0.025,102.0,113.0,100.0,13.4,1505.3,323.7,-0.7,1.8,2470.415,13.33,0.034,339.4
2020-05-02T04:37:03,42.805,6.029,-0.044,0.025,-0.044,101.0,112.0,102.0,13.4,1505.3,322.8,-0.7,1.8,2470.445,13.33,0.05,299.6
2020-05-02T04:40:03,42.805,6.029,-0.036,0.033,-0.039,103.0,112.0,101.0,13.4,1505.3,325.7,-0.7,1.8,2470.36,13.33,0.048,312.5
2020-05-02T04:43:03,42.805,6.029,-0.016,0.024,-0.014,103.0,111.0,101.0,13.3,1505.3,325.2,-0.7,1.8,2470.419,13.33,0.028,326.3
2020-05-02T04:46:03,42.805,6.029,-0.043,0.028,-0.041,103.0,113.0,101.0,13.4,1505.3,324.8,-0.7,1.8,2470.419,13.33,0.051,303.1
2020-05-02T04:49:03,42.805,6.029,-0.043,0.025,-0.053,101.0,112.0,101.0,13.3,1505.3,325.7,-0.7,1.8,2470.401,13.33,0.049,300.2
2020-05-02T04:52:03,42.805,6.029,-0.026,0.041,-0.034,101.0,113.0,101.0,13.3,1505.3,326.3,-0.7,1.8,2470.412,13.33,0.048,327.6
2020-05-02T04:55:03,42.805,6.029,-0.02,0.024,-0.021,102.0,115.0,101.0,13.4,1505.3,328.3,-0.7,1.8,2470.405,13.33,0.031,320.2
2020-05-02T04:58:03,42.805,6.029,-0.021,0.026,-0.005,102.0,113.0,100.0,13.4,1505.3,324.0,-0.7,1.9,2470.352,13.33,0.033,321.1
2020-05-02T05:04:03,42.805,6.029,-0.015,0.029,-0.005,100.0,112.0,100.0,13.4,1505.3,327.2,-0.7,1.8,2470.394,13.31,0.032,332.6
2020-05-02T05:07:03,42.805,6.029,-0.039,0.057,-0.029,101.0,113.0,100.0,13.4,1505.3,326.4,-0.8,1.9,2470.401,13.32,0.069,325.6
2020-05-02T05:10:03,42.805,6.029,-0.05,0.033,-0.047,99.0,113.0,101.0,13.4,1505.3,326.5,-0.7,1.8,2470.446,13.32,0.059,303.4
2020-05-02T05:13:03,42.805,6.029,-0.033,0.03,-0.049,102.0,112.0,100.0,13.4,1505.3,327.3,-0.7,1.8,2470.433,13.33,0.044,312.3
2020-05-02T05:16:03,42.805,6.029,-0.044,0.021,-0.028,101.0,112.0,100.0,13.4,1505.3,328.4,-0.7,1.8,2470.354,13.33,0.048,295.5
2020-05-02T05:19:03,42.805,6.029,-0.043,0.042,0.006,102.0,112.0,100.0,13.4,1505.3,326.5,-0.7,1.8,2470.426,13.33,0.06,314.3
2020-05-02T05:22:03,42.805,6.029,-0.038,0.047,-0.018,103.0,111.0,100.0,13.4,1505.3,326.4,-0.7,1.8,2470.367,13.33,0.06,321.0
2020-05-02T05:25:03,42.805,6.029,-0.058,0.012,-0.104,99.0,113.0,101.0,13.4,1505.3,323.0,-0.7,1.8,2470.444,13.33,0.059,281.7
2020-05-02T05:28:03,42.805,6.029,-0.011,0.031,-0.003,101.0,110.0,101.0,13.4,1505.3,326.1,-0.7,1.8,2470.392,13.33,0.032,340.5
2020-05-02T05:31:03,42.805,6.029,-0.046,0.038,-0.045,102.0,112.0,100.0,13.4,1505.3,325.2,-0.7,1.8,2470.362,13.33,0.059,309.6
2020-05-02T05:34:03,42.805,6.029,-0.005,0.031,-0.009,103.0,111.0,100.0,13.4,1505.3,325.4,-0.7,1.8,2470.385,13.33,0.031,350.8
2020-05-02T05:37:03,42.805,6.029,-0.023,0.032,0.005,103.0,113.0,100.0,13.4,1505.3,323.4,-0.7,1.8,2470.411,13.33,0.039,324.3
2020-05-02T05:40:03,42.805,6.029,-0.046,0.048,-0.017,101.0,114.0,100.0,13.3,1505.3,326.3,-0.7,1.8,2470.36,13.33,0.066,316.2
2020-05-02T05:43:03,42.805,6.029,-0.028,0.033,-0.047,102.0,112.0,101.0,13.4,1505.3,323.5,-0.7,1.8,2470.362,13.33,0.043,319.7
2020-05-02T05:46:03,42.805,6.029,-0.023,0.032,-0.04,102.0,112.0,100.0,13.4,1505.3,326.5,-0.7,1.8,2470.361,13.33,0.039,324.3
2020-05-02T05:49:03,42.805,6.029,-0.03,0.029,-0.033,102.0,111.0,101.0,13.3,1505.3,327.5,-0.7,1.8,2470.376,13.33,0.041,314.0
2020-05-02T05:52:03,42.805,6.029,-0.043,0.022,-0.061,101.0,113.0,100.0,13.4,1505.3,327.2,-0.7,1.8,2470.309,13.33,0.048,297.1
2020-05-02T05:55:03,42.805,6.029,-0.038,0.024,-0.025,102.0,112.0,100.0,13.4,1505.3,326.4,-0.7,1.8,2470.327,13.33,0.044,302.3
2020-05-02T05:58:03,42.805,6.029,-0.018,0.054,0.014,103.0,111.0,102.0,13.4,1505.3,328.4,-0.7,1.8,2470.363,13.33,0.056,341.6
2020-05-02T06:04:03,42.805,6.029,-0.009,0.045,-0.013,102.0,112.0,99.0,13.4,1505.3,326.7,-0.8,1.8,2470.422,13.31,0.045,348.7
2020-05-02T06:07:03,42.805,6.029,-0.035,0.038,-0.044,101.0,113.0,100.0,13.4,1505.3,326.3,-0.7,1.9,2470.424,13.32,0.051,317.4
2020-05-02T06:10:03,42.805,6.029,-0.042,0.041,-0.008,100.0,113.0,99.0,13.4,1505.3,327.8,-0.7,1.8,2470.387,13.32,0.058,314.3
2020-05-02T06:13:03,42.805,6.029,-0.048,0.059,-0.059,101.0,113.0,99.0,13.3,1505.3,323.8,-0.7,1.8,2470.446,13.33,0.076,320.9
2020-05-02T06:16:03,42.805,6.029,-0.025,0.024,-0.004,99.0,111.0,100.0,13.4,1505.3,324.1,-0.7,1.9,2470.425,13.33,0.034,313.8
2020-05-02T06:19:03,42.805,6.029,-0.043,0.01,-0.04,101.0,112.0,100.0,13.4,1505.3,328.3,-0.7,1.8,2470.375,13.33,0.044,283.1
2020-05-02T06:22:03,42.805,6.029,-0.013,0.014,-0.025,102.0,110.0,101.0,13.4,1505.3,324.7,-0.7,1.8,2470.373,13.33,0.019,317.1
2020-05-02T06:25:03,42.805,6.029,-0.031,0.018,-0.04,100.0,112.0,102.0,13.4,1505.3,324.2,-0.7,1.8,2470.378,13.33,0.035,300.1
2020-05-02T06:28:03,42.805,6.029,-0.013,0.018,-0.005,101.0,110.0,100.0,13.4,1505.3,325.6,-0.7,1.8,2470.373,13.33,0.022,324.2
2020-05-02T06:31:03,42.805,6.029,-0.046,0.035,-0.032,103.0,113.0,99.0,13.4,1505.3,325.4,-0.7,1.8,2470.387,13.33,0.057,307.3
2020-05-02T06:34:03,42.805,6.029,-0.016,0.017,-0.01,101.0,112.0,101.0,13.3,1505.3,327.2,-0.7,1.8,2470.361,13.33,0.023,316.7
2020-05-02T06:37:03,42.805,6.029,0.006,-0.008,-0.05,102.0,111.0,100.0,13.4,1505.3,326.5,-0.7,1.8,2470.357,13.33,0.01,143.1
2020-05-02T06:40:03,42.805,6.029,-0.024,0.028,-0.015,102.0,110.0,100.0,13.4,1505.4,328.4,-0.7,1.8,2470.375,13.34,0.036,319.4
2020-05-02T06:43:03,42.805,6.029,-0.012,0.042,0.003,103.0,113.0,100.0,13.4,1505.3,327.9,-0.7,1.8,2470.343,13.33,0.043,344.1
2020-05-02T06:46:03,42.805,6.029,-0.014,0.023,-0.027,101.0,113.0,100.0,13.4,1505.3,323.4,-0.7,1.8,2470.326,13.33,0.026,328.7
2020-05-02T06:49:03,42.805,6.029,-0.019,0.024,-0.05,102.0,113.0,100.0,13.4,1505.3,323.1,-0.7,1.8,2470.357,13.33,0.03,321.6
2020-05-02T06:52:03,42.805,6.029,-0.019,0.044,-0.024,102.0,111.0,101.0,13.4,1505.3,324.2,-0.7,1.8,2470.348,13.33,0.047,336.6
2020-05-02T06:55:03,42.805,6.029,-0.046,0.027,-0.056,102.0,109.0,102.0,13.3,1505.3,325.1,-0.7,1.8,2470.333,13.33,0.053,300.4
2020-05-02T06:58:03,42.805,6.029,-0.011,0.021,-0.032,100.0,112.0,100.0,13.4,1505.3,326.7,-0.7,1.9,2470.343,13.33,0.023,332.4
2020-05-02T07:04:03,42.805,6.029,-0.003,0.012,-0.007,102.0,112.0,99.0,13.4,1505.3,326.4,-0.7,1.8,2470.36,13.31,0.012,346.0
2020-05-02T07:07:03,42.805,6.029,-0.056,0.052,-0.047,100.0,112.0,100.0,13.4,1505.3,328.0,-0.7,1.8,2470.356,13.32,0.076,312.9
2020-05-02T07:10:03,42.805,6.029,-0.01,0.016,-0.001,104.0,108.0,100.0,13.4,1505.3,324.2,-0.7,1.8,2470.317,13.32,0.018,328.0
2020-05-02T07:13:03,42.805,6.029,-0.032,0.01,-0.049,102.0,111.0,101.0,13.4,1505.3,326.6,-0.7,1.9,2470.361,13.33,0.033,287.4
2020-05-02T07:16:03,42.805,6.029,-0.039,0.018,-0.038,102.0,112.0,101.0,13.4,1505.3,323.8,-0.7,1.8,2470.323,13.33,0.042,294.8
2020-05-02T07:19:03,42.805,6.029,-0.009,0.039,-0.02,101.0,110.0,101.0,13.4,1505.3,326.2,-0.7,1.9,2470.324,13.33,0.04,347.0
2020-05-02T07:22:03,42.805,6.029,-0.016,0.011,-0.025,102.0,110.0,100.0,13.3,1505.3,326.1,-0.7,1.8,2470.355,13.33,0.019,304.5
2020-05-02T07:25:03,42.805,6.029,-0.012,0.023,-0.024,101.0,111.0,101.0,13.3,1505.3,324.9,-0.7,1.8,2470.303,13.33,0.025,332.4
2020-05-02T07:28:03,42.805,6.029,-0.027,0.036,0.0,101.0,111.0,101.0,13.4,1505.3,324.2,-0.7,1.8,2470.31,13.33,0.045,323.1
2020-05-02T07:31:03,42.805,6.029,-0.01,0.049,0.006,101.0,111.0,100.0,13.4,1505.3,326.9,-0.7,1.9,2470.347,13.33,0.05,348.5
2020-05-02T07:34:03,42.805,6.029,-0.039,0.022,-0.04,102.0,111.0,100.0,13.4,1505.3,327.4,-0.7,1.9,2470.365,13.33,0.044,299.4
2020-05-02T07:37:03,42.805,6.029,-0.006,0.031,-0.018,102.0,112.0,101.0,13.4,1505.3,326.5,-0.7,1.8,2470.292,13.33,0.031,349.0
2020-05-02T07:40:03,42.805,6.029,-0.043,0.01,-0.031,102.0,113.0,100.0,13.3,1505.3,327.8,-0.7,1.8,2470.293,13.33,0.044,283.1
2020-05-02T07:43:03,42.805,6.029,-0.014,0.015,-0.03,103.0,111.0,101.0,13.4,1505.3,327.3,-0.7,1.8,2470.344,13.33,0.02,317.0
2020-05-02T07:46:03,42.805,6.029,-0.033,-0.002,-0.059,102.0,111.0,101.0,13.4,1505.4,328.1,-0.7,1.9,2470.307,13.34,0.033,266.5
2020-05-02T07:49:03,42.805,6.029,-0.02,0.01,-0.026,102.0,111.0,100.0,13.3,1505.4,328.3,-0.7,1.8,2470.314,13.34,0.022,296.6
2020-05-02T07:52:03,42.805,6.029,-0.016,0.029,-0.035,105.0,110.0,100.0,13.3,1505.4,326.3,-0.7,1.8,2470.268,13.34,0.033,331.1
2020-05-02T07:55:03,42.805,6.029,-0.031,0.003,-0.039,102.0,112.0,100.0,13.4,1505.4,326.4,-0.7,1.8,2470.304,13.34,0.031,275.5
2020-05-02T07:58:03,42.805,6.029,-0.02,0.023,-0.033,102.0,111.0,101.0,13.4,1505.4,326.3,-0.7,1.8,2470.316,13.34,0.03,319.0
2020-05-02T08:04:03,42.805,6.029,-0.009,0.005,-0.017,102.0,111.0,100.0,13.4,1505.3,325.9,-0.7,1.8,2470.315,13.32,0.01,299.1
2020-05-02T08:07:03,42.805,6.029,-0.011,0.025,-0.042,101.0,110.0,101.0,13.3,1505.3,325.2,-0.7,1.8,2470.325,13.32,0.027,336.3
2020-05-02T08:10:03,42.805,6.029,-0.009,0.011,-0.033,101.0,110.0,101.0,13.4,1505.3,326.5,-0.7,1.9,2470.305,13.33,0.014,320.7
2020-05-02T08:13:03,42.805,6.029,-0.024,0.01,-0.044,100.0,112.0,101.0,13.4,1505.3,322.9,-0.7,1.8,2470.367,13.33,0.026,292.6
2020-05-02T08:16:03,42.805,6.029,-0.001,0.027,-0.014,101.0,111.0,101.0,13.4,1505.3,325.3,-0.7,1.8,2470.314,13.33,0.027,357.9
2020-05-02T08:19:03,42.805,6.029,-0.032,0.015,-0.017,104.0,110.0,100.0,13.4,1505.4,328.4,-0.7,1.9,2470.315,13.34,0.035,295.1
2020-05-02T08:22:03,42.805,6.029,-0.002,0.013,-0.041,102.0,111.0,101.0,13.3,1505.4,323.7,-0.7,1.8,2470.3,13.34,0.013,351.3
2020-05-02T08:25:03,42.805,6.029,-0.018,0.015,-0.007,103.0,111.0,101.0,13.4,1505.4,325.6,-0.7,1.8,2470.316,13.34,0.023,309.8
2020-05-02T08:28:03,42.805,6.029,-0.011,0.004,-0.028,103.0,113.0,101.0,13.4,1505.4,326.8,-0.7,1.8,2470.26,13.34,0.011,290.0
2020-05-02T08:31:03,42.805,6.029,-0.027,0.011,-0.028,103.0,112.0,100.0,13.4,1505.4,323.3,-0.7,1.8,2470.266,13.34,0.029,292.2
2020-05-02T08:34:03,42.805,6.029,-0.014,0.023,-0.012,102.0,112.0,101.0,13.4,1505.4,326.3,-0.7,1.8,2470.275,13.34,0.026,328.7
2020-05-02T08:37:03,42.805,6.029,-0.027,0.019,-0.02,101.0,111.0,101.0,13.3,1505.4,325.2,-0.7,1.8,2470.306,13.34,0.033,305.1
2020-05-02T08:40:03,42.805,6.029,-0.031,0.024,-0.01,102.0,110.0,100.0,13.3,1505.4,323.0,-0.7,1.8,2470.3,13.34,0.039,307.7
2020-05-02T08:43:03,42.805,6.029,-0.02,0.009,-0.015,102.0,110.0,100.0,13.4,1505.4,322.8,-0.7,1.9,2470.282,13.34,0.021,294.2
2020-05-02T08:46:03,42.805,6.029,-0.025,-0.011,-0.042,102.0,111.0,100.0,13.4,1505.4,327.0,-0.7,1.8,2470.277,13.34,0.027,246.3
2020-05-02T08:49:03,42.805,6.029,-0.036,0.013,-0.052,105.0,110.0,102.0,13.3,1505.4,326.6,-0.7,1.8,2470.282,13.34,0.038,289.9
2020-05-02T08:52:03,42.805,6.029,-0.035,0.018,-0.014,101.0,111.0,101.0,13.4,1505.4,324.1,-0.7,1.8,2470.262,13.34,0.039,297.2
2020-05-02T08:55:03,42.805,6.029,-0.017,0.013,-0.028,102.0,111.0,100.0,13.3,1505.4,327.3,-0.7,1.8,2470.3,13.34,0.021,307.4
2020-05-02T08:58:03,42.805,6.029,-0.025,0.015,-0.006,101.0,110.0,100.0,13.3,1505.4,326.4,-0.7,1.8,2470.273,13.34,0.029,301.0
2020-05-02T09:04:03,42.805,6.029,-0.017,0.003,0.003,102.0,110.0,100.0,13.4,1505.3,328.4,-0.7,1.8,2470.334,13.32,0.017,280.0
2020-05-02T09:07:03,42.805,6.029,-0.024,0.023,-0.057,102.0,109.0,100.0,13.3,1505.3,326.4,-0.7,1.8,2470.271,13.33,0.033,313.8
2020-05-02T09:10:03,42.805,6.029,0.002,0.014,-0.043,102.0,110.0,100.0,13.3,1505.3,327.6,-0.7,1.9,2470.285,13.33,0.014,8.1
2020-05-02T09:13:03,42.805,6.029,0.01,0.023,-0.025,101.0,111.0,99.0,13.4,1505.3,326.9,-0.7,1.8,2470.252,13.33,0.025,23.5
2020-05-02T09:16:03,42.805,6.029,-0.013,0.019,-0.031,102.0,109.0,100.0,13.4,1505.4,327.7,-0.7,1.8,2470.264,13.34,0.023,325.6
2020-05-02T09:19:03,42.805,6.029,-0.02,0.021,-0.052,102.0,110.0,101.0,13.4,1505.4,324.3,-0.7,1.8,2470.285,13.34,0.028,316.4
2020-05-02T09:22:03,42.805,6.029,0.01,0.013,0.003,102.0,109.0,101.0,13.3,1505.4,325.2,-0.7,1.8,2470.264,13.34,0.016,37.6
2020-05-02T09:25:03,42.805,6.029,0.019,0.024,-0.006,103.0,110.0,100.0,13.4,1505.4,323.3,-0.7,1.8,2470.234,13.34,0.03,38.4
2020-05-02T09:28:03,42.805,6.029,-0.004,0.02,-0.023,103.0,111.0,100.0,13.4,1505.4,326.2,-0.7,1.8,2470.28,13.34,0.02,348.7
2020-05-02T09:31:03,42.805,6.029,-0.006,0.021,-0.021,101.0,111.0,100.0,13.4,1505.4,324.3,-0.7,1.8,2470.273,13.34,0.021,344.1
2020-05-02T09:34:03,42.805,6.029,-0.025,0.0,-0.042,101.0,110.0,101.0,13.4,1505.4,328.2,-0.7,1.8,2470.244,13.34,0.025,270.0
2020-05-02T09:37:03,42.805,6.029,-0.017,0.018,-0.023,103.0,111.0,101.0,13.4,1505.4,323.2,-0.7,1.8,2470.24,13.34,0.024,316.6
2020-05-02T09:40:03,42.805,6.029,-0.029,0.023,-0.054,102.0,111.0,100.0,13.4,1505.4,325.2,-0.7,1.8,2470.263,13.34,0.037,308.4
2020-05-02T09:43:03,42.805,6.029,0.007,0.018,-0.015,103.0,110.0,101.0,13.3,1505.4,326.3,-0.7,1.8,2470.241,13.34,0.019,21.2
2020-05-02T09:46:03,42.805,6.029,-0.016,0.031,-0.021,102.0,111.0,100.0,13.3,1505.4,325.9,-0.7,1.9,2470.254,13.34,0.034,332.7
2020-05-02T09:49:03,42.805,6.029,-0.017,0.0,-0.027,103.0,109.0,100.0,13.3,1505.4,327.0,-0.7,1.8,2470.277,13.34,0.017,270.0
2020-05-02T09:52:03,42.805,6.029,-0.006,0.011,0.002,103.0,110.0,101.0,13.3,1505.4,325.5,-0.7,1.8,2470.266,13.34,0.012,331.4
2020-05-02T09:55:03,42.805,6.029,-0.007,0.01,-0.019,103.0,109.0,101.0,13.4,1505.4,326.4,-0.8,1.8,2470.239,13.34,0.012,325.0